WetterOnline ( http://www.wetteronline.de )

Wetter aktuell Hittbergen

Aktuelles Wetter: Lüchow (18m)

6-stündlich | Neueste Meldungen
Ortszeit Temperatur Wetter
Mi, 18.07. 8:00 16.9° C bewölkt
Mi, 18.07. 2:00 19.9° C wolkig
Di, 17.07. 20:00 28.6° C leicht bewölkt
Di, 17.07. 14:00 29.5° C wolkig
Di, 17.07. 8:00 18.1° C wolkenlos
Di, 17.07. 2:00 15.7° C wolkenlos
Mo, 16.07. 20:00 25.0° C wolkenlos
Mo, 16.07. 14:00 26.6° C leicht bewölkt
Ortszeit Temperatur Wetter
Mi, 18.07. 10:00 20.3° C wolkig
Mi, 18.07. 9:50 20.3° C bedeckt
Mi, 18.07. 9:40 19.7° C bedeckt
Mi, 18.07. 9:30 19.7° C wolkig
Mi, 18.07. 9:20 19.7° C bedeckt
Mi, 18.07. 9:10 19.5° C wolkig
Mi, 18.07. 9:00 19.3° C bewölkt
Mi, 18.07. 8:30 18.1° C bewölkt
Mi, 18.07. 8:00 16.9° C bewölkt
Mi, 18.07. 7:30 16.8° C wolkig
Mi, 18.07. 7:00 16.5° C wolkig
Ortszeit Relative Feuchte Sichtweite
Mi, 18.07. 8:00 80% 22 km
Mi, 18.07. 2:00 68% 21 km
Di, 17.07. 20:00 31% 30 km
Di, 17.07. 14:00 32% 20 km
Di, 17.07. 8:00 80% 11 km
Di, 17.07. 2:00 84% 16 km
Mo, 16.07. 20:00 48% 29 km
Mo, 16.07. 14:00 37% 19 km
Ortszeit Relative Feuchte Sichtweite
Mi, 18.07. 10:00 65% 6 km
Mi, 18.07. 9:50 65% -
Mi, 18.07. 9:40 67% -
Mi, 18.07. 9:30 67% 7 km
Mi, 18.07. 9:20 67% -
Mi, 18.07. 9:10 69% -
Mi, 18.07. 9:00 70% 8 km
Mi, 18.07. 8:30 76% 11 km
Mi, 18.07. 8:00 80% 22 km
Mi, 18.07. 7:30 80% 15 km
Mi, 18.07. 7:00 81% 17 km
Ortszeit Niederschlagsmenge Niederschlagsart
Mi, 18.07. 8:00 0.0 l/m2 in 12 Std. -
Mi, 18.07. 2:00 0.0 l/m2 in 6 Std. -
Di, 17.07. 20:00 0.0 l/m2 in 12 Std. -
Di, 17.07. 14:00 0.0 l/m2 in 6 Std. -
Di, 17.07. 8:00 0.0 l/m2 in 12 Std. -
Di, 17.07. 2:00 0.0 l/m2 in 6 Std. -
Mo, 16.07. 20:00 0.0 l/m2 in 12 Std. -
Mo, 16.07. 14:00 0.0 l/m2 in 6 Std. -
Ortszeit Niederschlagsmenge Niederschlagsart
Mi, 18.07. 10:00 0.0 l/m2 in 1 Std. -
Mi, 18.07. 9:50 keine Meldung -
Mi, 18.07. 9:40 keine Meldung -
Mi, 18.07. 9:30 0.0 l/m2 in 1 Std. -
Mi, 18.07. 9:20 keine Meldung -
Mi, 18.07. 9:10 keine Meldung -
Mi, 18.07. 9:00 0.0 l/m2 in 1 Std. -
Mi, 18.07. 8:30 0.0 l/m2 in 1 Std. -
Mi, 18.07. 8:00 0.0 l/m2 in 1 Std. -
Mi, 18.07. 7:30 0.0 l/m2 in 1 Std. -
Mi, 18.07. 7:00 0.0 l/m2 in 1 Std. -
Ortszeit Stärke Spitze Richtung
km/h Bft. km/h Grad Sektor
Mi, 18.07. 8:00 14 3 29 320° NW
Mi, 18.07. 2:00 17 3 26 330° NW
Di, 17.07. 20:00 13 3 31 330° NW
Di, 17.07. 14:00 13 3 28 290° W
Di, 17.07. 8:00 6 1 9 20° N
Di, 17.07. 2:00 6 1 15 20° N
Mo, 16.07. 20:00 7 2 25 10° N
Mo, 16.07. 14:00 9 2 24 50° NO
Ortszeit Stärke Spitze Richtung
km/h Bft. km/h Grad Sektor
Mi, 18.07. 10:00 14 3 29 290° W
Mi, 18.07. 9:50 14 3 - 290° W
Mi, 18.07. 9:40 14 3 - 300° NW
Mi, 18.07. 9:30 14 3 25 300° NW
Mi, 18.07. 9:20 14 3 - 300° NW
Mi, 18.07. 9:10 13 3 - 310° NW
Mi, 18.07. 9:00 11 2 25 320° NW
Mi, 18.07. 8:30 11 2 22 300° NW
Mi, 18.07. 8:00 14 3 25 320° NW
Mi, 18.07. 7:30 11 2 22 300° NW
Mi, 18.07. 7:00 7 2 14 300° NW
Ortszeit Untergrenze Bedeckung Gattung
total tief tief mittel hoch
Mi, 18.07. 8:00 450 m 8/8 4/8 - - -
Mi, 18.07. 2:00 9000 m 8/8 0/8 - - -
Di, 17.07. 20:00 10500 m 3/8 0/8 - - -
Di, 17.07. 14:00 2100 m 7/8 3/8 - - -
Di, 17.07. 8:00 - 0/8 0/8 - - -
Di, 17.07. 2:00 - 0/8 0/8 - - -
Mo, 16.07. 20:00 - 0/8 0/8 - - -
Mo, 16.07. 14:00 1800 m 7/8 1/8 - - -
Ortszeit Bedeckungsgrad in Achtel und Wolkenuntergrenze
Mi, 18.07. 10:00 8
Mi, 18.07. 9:50 9 9 9
Mi, 18.07. 9:40 9 9 9
Mi, 18.07. 9:30 2(690m) 9 9
Mi, 18.07. 9:20 9 9 9
Mi, 18.07. 9:10 4(570m) 6(690m) 6(2400m)
Mi, 18.07. 9:00 6(540m) 7(8700m) 7(8400m)
Mi, 18.07. 8:30 7(450m) 7(1500m) 8(9000m)
Mi, 18.07. 8:00 4(450m) 8(8700m) 8(9000m)
Mi, 18.07. 7:30 8(9000m) 8(9000m)
Mi, 18.07. 7:00 8(8700m) 8(9000m) 8(9000m)
Ortszeit Luftdruck NN (hPa) Tendenz (hPa in 3 Std.)
Mi, 18.07. 8:00 1016 + 1,4
Mi, 18.07. 2:00 1014 + 1,4
Di, 17.07. 20:00 1012 0,0
Di, 17.07. 14:00 1012 - 0,6
Di, 17.07. 8:00 1013 + 0,3
Di, 17.07. 2:00 1013 + 0,3
Mo, 16.07. 20:00 1012 - 0,5
Mo, 16.07. 14:00 1014 - 1,2
Ortszeit Luftdruck NN (hPa) Tendenz (hPa in 3 Std.)
Mi, 18.07. 10:00 1017 + 0,6
Mi, 18.07. 9:50 1017 keine Meldung
Mi, 18.07. 9:40 1017 keine Meldung
Mi, 18.07. 9:30 1017 + 0,9
Mi, 18.07. 9:20 1017 keine Meldung
Mi, 18.07. 9:10 1017 keine Meldung
Mi, 18.07. 9:00 1017 + 1,1
Mi, 18.07. 8:30 1016 + 1,2
Mi, 18.07. 8:00 1016 + 1,4
Mi, 18.07. 7:30 1016 + 1,3
Mi, 18.07. 7:00 1016 + 1,4
Ortszeit Schneehöhe (cm)
Mi, 18.07. 8:00 -
Mi, 18.07. 2:00 -
Di, 17.07. 20:00 -
Di, 17.07. 14:00 -
Di, 17.07. 8:00 -
Di, 17.07. 2:00 -
Mo, 16.07. 20:00 -
Mo, 16.07. 14:00 -
Ortszeit Schneehöhe (cm)
Mi, 18.07. 10:00 -
Mi, 18.07. 9:50 -
Mi, 18.07. 9:40 -
Mi, 18.07. 9:30 -
Mi, 18.07. 9:20 -
Mi, 18.07. 9:10 -
Mi, 18.07. 9:00 -
Mi, 18.07. 8:30 -
Mi, 18.07. 8:00 -
Mi, 18.07. 7:30 -
Mi, 18.07. 7:00 -
Link zu dieser Seite / Seite empfehlen

Das Wetter in ...